Stündliche Wetter Bolshie Izori

Heute, 21 April, Mittwoch

Zeit Temperatur Niederschläge Wind Luftdruck Luftfeuchtigkeit
00:00 +6°C° 0 mm 1 m/S 748 mmHg 86%
01:00 +5°C° 0 mm 1 m/S 747 mmHg 88%
02:00 +5°C° 0 mm 1 m/S 747 mmHg 90%
03:00 +5°C° 0 mm 1 m/S 746 mmHg 89%
04:00 +4°C° 0 mm 1 m/S 746 mmHg 89%
05:00 +4°C° 0 mm 1 m/S 745 mmHg 88%
06:00 +5°C° 0 mm 1 m/S 745 mmHg 84%
07:00 +6°C° 0 mm 1 m/S 745 mmHg 79%
08:00 +5°C° 0 mm 2 m/S 744 mmHg 75%
09:00 +6°C° 0 mm 2 m/S 744 mmHg 71%
10:00 +7°C° 0 mm 2 m/S 744 mmHg 67%
11:00 +8°C° 0 mm 2 m/S 743 mmHg 63%
12:00 +8°C° 0 mm 2 m/S 743 mmHg 61%
13:00 +9°C° 0 mm 3 m/S 743 mmHg 59%
14:00 +9°C° 0 mm 3 m/S 743 mmHg 57%
15:00 +9°C° 0.2 mm 2 m/S 743 mmHg 59%
16:00 +9°C° 0.2 mm 2 m/S 743 mmHg 62%
17:00 +9°C° 0.2 mm 2 m/S 743 mmHg 65%
18:00 +8°C° 0.1 mm 2 m/S 743 mmHg 71%
19:00 +7°C° 0.1 mm 2 m/S 743 mmHg 77%
20:00 +5°C° 0.1 mm 2 m/S 744 mmHg 83%
21:00 +5°C° 0 mm 2 m/S 744 mmHg 84%
22:00 +5°C° 0 mm 2 m/S 744 mmHg 86%
23:00 +4°C° 0 mm 2 m/S 744 mmHg 87%

Morgen, 22 April, Donnerstag

Zeit Temperatur Niederschläge Wind Luftdruck Luftfeuchtigkeit
00:00 +3°C° 0 mm 3 m/S 744 mmHg 86%
01:00 +4°C° 0 mm 3 m/S 744 mmHg 85%
02:00 +4°C° 0 mm 3 m/S 744 mmHg 84%
03:00 +4°C° 0.1 mm 3 m/S 744 mmHg 86%
04:00 +3°C° 0.1 mm 3 m/S 744 mmHg 88%
05:00 +3°C° 0.1 mm 3 m/S 744 mmHg 91%
06:00 +5°C° 0 mm 3 m/S 745 mmHg 85%
07:00 +7°C° 0 mm 3 m/S 745 mmHg 78%
08:00 +9°C° 0 mm 3 m/S 745 mmHg 72%
09:00 +10°C° 0 mm 3 m/S 745 mmHg 64%
10:00 +12°C° 0 mm 3 m/S 745 mmHg 55%
11:00 +14°C° 0 mm 4 m/S 745 mmHg 46%
12:00 +14°C° 0.1 mm 4 m/S 745 mmHg 49%
13:00 +14°C° 0.1 mm 4 m/S 745 mmHg 51%
14:00 +14°C° 0.1 mm 4 m/S 744 mmHg 53%
15:00 +13°C° 0.3 mm 4 m/S 744 mmHg 56%
16:00 +13°C° 0.3 mm 4 m/S 744 mmHg 60%
17:00 +13°C° 0.3 mm 3 m/S 744 mmHg 63%
18:00 +11°C° 0.4 mm 3 m/S 744 mmHg 71%
19:00 +10°C° 0.4 mm 2 m/S 745 mmHg 79%
20:00 +8°C° 0.4 mm 2 m/S 745 mmHg 87%
21:00 +7°C° 0 mm 2 m/S 745 mmHg 89%
22:00 +6°C° 0 mm 2 m/S 745 mmHg 91%
23:00 +7°C° 0 mm 1 m/S 745 mmHg 94%

übermorgen, 23 April, Freitag

Zeit Temperatur Niederschläge Wind Luftdruck Luftfeuchtigkeit
00:00 +7°C° 0 mm 1 m/S 746 mmHg 91%
01:00 +7°C° 0 mm 1 m/S 746 mmHg 89%
02:00 +6°C° 0 mm 2 m/S 746 mmHg 86%
03:00 +5°C° 0.4 mm 2 m/S 746 mmHg 87%
04:00 +5°C° 0.4 mm 2 m/S 746 mmHg 87%
05:00 +5°C° 0.4 mm 2 m/S 746 mmHg 88%
06:00 +5°C° 0.2 mm 2 m/S 746 mmHg 83%
07:00 +5°C° 0.2 mm 3 m/S 746 mmHg 78%
08:00 +5°C° 0.2 mm 3 m/S 747 mmHg 73%
09:00 +7°C° 0 mm 3 m/S 747 mmHg 66%
10:00 +7°C° 0 mm 4 m/S 747 mmHg 60%
11:00 +7°C° 0 mm 4 m/S 747 mmHg 54%
12:00 +8°C° 0 mm 4 m/S 747 mmHg 50%
13:00 +8°C° 0 mm 4 m/S 747 mmHg 45%
14:00 +10°C° 0 mm 4 m/S 747 mmHg 41%
15:00 +9°C° 0 mm 3 m/S 747 mmHg 44%
16:00 +9°C° 0 mm 3 m/S 747 mmHg 48%
17:00 +9°C° 0 mm 2 m/S 747 mmHg 51%
18:00 +7°C° 0 mm 2 m/S 747 mmHg 56%
19:00 +7°C° 0 mm 1 m/S 747 mmHg 62%
20:00 +6°C° 0 mm 1 m/S 747 mmHg 67%
21:00 +6°C° 0 mm 1 m/S 747 mmHg 69%
22:00 +5°C° 0 mm 1 m/S 747 mmHg 70%
23:00 +5°C° 0 mm 1 m/S 747 mmHg 72%

24 April, Samstag

Zeit Temperatur Niederschläge Wind Luftdruck Luftfeuchtigkeit
00:00 +4°C° 0 mm 1 m/S 746 mmHg 73%
01:00 +4°C° 0 mm 1 m/S 746 mmHg 74%
02:00 +4°C° 0 mm 1 m/S 746 mmHg 76%
03:00 +3°C° 0 mm 1 m/S 746 mmHg 78%
04:00 +3°C° 0 mm 1 m/S 745 mmHg 80%
05:00 +2°C° 0 mm 1 m/S 745 mmHg 82%
06:00 +3°C° 0 mm 2 m/S 745 mmHg 78%
07:00 +4°C° 0 mm 2 m/S 745 mmHg 73%
08:00 +5°C° 0 mm 2 m/S 745 mmHg 68%
09:00 +4°C° 0.1 mm 3 m/S 745 mmHg 65%
10:00 +5°C° 0.1 mm 3 m/S 745 mmHg 61%
11:00 +6°C° 0.1 mm 4 m/S 745 mmHg 57%
12:00 +5°C° 0.1 mm 3 m/S 745 mmHg 57%
13:00 +5°C° 0.1 mm 3 m/S 745 mmHg 57%
14:00 +5°C° 0.1 mm 3 m/S 745 mmHg 57%
15:00 +5°C° 0.2 mm 3 m/S 745 mmHg 61%
16:00 +5°C° 0.2 mm 3 m/S 744 mmHg 65%
17:00 +4°C° 0.2 mm 3 m/S 744 mmHg 69%
18:00 +3°C° 0.2 mm 3 m/S 745 mmHg 76%
19:00 +2°C° 0.2 mm 3 m/S 745 mmHg 83%
20:00 +1°C° 0.2 mm 3 m/S 745 mmHg 90%
21:00 +2°C° 0 mm 2 m/S 745 mmHg 91%
22:00 +2°C° 0 mm 2 m/S 745 mmHg 92%
23:00 +2°C° 0 mm 2 m/S 745 mmHg 93%

25 April, Sonntag

Zeit Temperatur Niederschläge Wind Luftdruck Luftfeuchtigkeit
00:00 +1°C° 0.1 mm 3 m/S 745 mmHg 94%
01:00 0°C° 0.1 mm 3 m/S 745 mmHg 95%
02:00 0°C° 0.1 mm 3 m/S 745 mmHg 95%
03:00 0°C° 0.1 mm 3 m/S 745 mmHg 95%
04:00 0°C° 0.1 mm 3 m/S 745 mmHg 96%
05:00 0°C° 0.1 mm 3 m/S 745 mmHg 96%
06:00 0°C° 0.1 mm 3 m/S 745 mmHg 90%
07:00 +1°C° 0.1 mm 3 m/S 745 mmHg 85%
08:00 +1°C° 0.1 mm 3 m/S 745 mmHg 80%
09:00 +2°C° 0.1 mm 3 m/S 745 mmHg 74%
10:00 +3°C° 0.1 mm 3 m/S 746 mmHg 68%
11:00 +4°C° 0.1 mm 3 m/S 746 mmHg 62%
12:00 +4°C° 0.1 mm 3 m/S 746 mmHg 59%
13:00 +5°C° 0.1 mm 3 m/S 746 mmHg 55%
14:00 +5°C° 0.1 mm 3 m/S 746 mmHg 52%
15:00 +5°C° 0.1 mm 3 m/S 746 mmHg 53%
16:00 +5°C° 0.1 mm 3 m/S 746 mmHg 54%
17:00 +5°C° 0.1 mm 3 m/S 746 mmHg 55%
18:00 +4°C° 0 mm 2 m/S 747 mmHg 63%
19:00 +4°C° 0 mm 1 m/S 747 mmHg 71%
20:00 +2°C° 0 mm 1 m/S 747 mmHg 78%
21:00 +1°C° 0 mm 0 m/S 747 mmHg 81%
22:00 0°C° 0 mm 0 m/S 747 mmHg 83%
23:00 0°C° 0 mm 0 m/S 748 mmHg 85%

26 April, Montag

Zeit Temperatur Niederschläge Wind Luftdruck Luftfeuchtigkeit
00:00 0°C° 0 mm 0 m/S 748 mmHg 87%
01:00 -1°C° 0 mm 0 m/S 748 mmHg 89%
02:00 -1°C° 0 mm 0 m/S 748 mmHg 91%
03:00 0°C° 0 mm 1 m/S 748 mmHg 91%
04:00 +1°C° 0 mm 1 m/S 748 mmHg 91%
05:00 +1°C° 0 mm 1 m/S 748 mmHg 92%
06:00 +2°C° 0 mm 1 m/S 748 mmHg 85%
07:00 +4°C° 0 mm 1 m/S 748 mmHg 77%
08:00 +4°C° 0 mm 2 m/S 748 mmHg 70%
09:00 +4°C° 0 mm 2 m/S 748 mmHg 66%
10:00 +5°C° 0 mm 2 m/S 749 mmHg 62%
11:00 +5°C° 0 mm 2 m/S 749 mmHg 57%
12:00 +6°C° 0 mm 2 m/S 749 mmHg 55%
13:00 +6°C° 0 mm 2 m/S 749 mmHg 53%
14:00 +7°C° 0 mm 2 m/S 749 mmHg 51%
15:00 +7°C° 0 mm 2 m/S 749 mmHg 52%
16:00 +7°C° 0 mm 2 m/S 749 mmHg 52%
17:00 +7°C° 0 mm 2 m/S 749 mmHg 53%
18:00 +6°C° 0 mm 1 m/S 749 mmHg 61%
19:00 +4°C° 0 mm 1 m/S 749 mmHg 70%
20:00 +3°C° 0 mm 1 m/S 749 mmHg 78%
21:00 +2°C° 0 mm 1 m/S 749 mmHg 80%
22:00 +2°C° 0 mm 1 m/S 749 mmHg 82%
23:00 +1°C° 0 mm 1 m/S 749 mmHg 84%
Mehr zeigen

Wir brauchen deine Erlaubnis

Meteoprog und unser Service Anbieter werden persönliche Daten aufbewahren, so wie Cookies, Geräte Bezeichnung oder ähnliche Technologien von deinem Gerät und Prozess, so wie Persönliche Daten Inhalte und Werbungen, genauso wie social Media und den Verkehr zu analysieren.

  • Aufbewahrung und/oder Zugang zu deiner Geräte Informationen.

    Cookies, Geräte Bezeichnung oder andere Informationen, können aufbewahrt oder Zugang zu deinem Gerät erhalten, für den Grund, der oben angegeben wird.

  • Personalisierte Werbung und Inhalte, Messungen, Einblick in das Publikum und Produkt Entwicklung.

    Werbungen und Inhalte können personalisiert werden, basierend auf ein Profil. Mehr Daten können besser personalisierte Werbungen und Inhalte hinzufügen. Werbung und Inhalte können gezeigt und gemessen werden. Einblicke über das Publikum, welche die Werbung gesehen haben und den Inhalt, können abgeleitet werden. So wie Daten können genutzt werden, um es zu verbessern oder die Benutzer Erfahrung zu verbessern das System und die Software.

Wenn du “Ich stimme zu” klickst, erlaubst du uns, die Cookies zu benutzen die Geräte Bezeichnung, den Web oder ähnliche Technologien zu benutzen. Deine Settings, können in deinem Gerät bei deinem Browser geändert werden.

Für den bestimmten Zweck, berechtigten Interessen beruhen darauf, mehr als auf den Inhalt. Du kannst mehr darüber in unseren Privaten und Cookie Politik lesen.